Temperature
9 7 6 7 8 9 9 9 9 9 9 9 8 8 8 9 9 9 9 9 9 10 10 10 10 10 10 10 10 10 10 10 10 10 9 9 9 9 9 9 9 9 9 9
6 6 7 8 8 9 9 8 8 9 9 9 8 7 8 8 8 9 9 9 9 9 9 10 10 10 10 10 10 10 9 9 9 9 9 9 9 9 9 8 8 8 8 8
7 7 8 8 8 8 8 8 8 8 8 8 7 7 8 8 9 9 9 9 9 9 9 9 9 9 9 9 9 9 9 9 9 9 8 8 8 8 8 8 8 8 8 8
6 7 8 8 7 8 7 8 8 8 7 6 7 6 7 7 7 7 8 8 9 9 9 9 9 9 9 9 9 9 9 8 8 8 8 8 8 8 8 7 7 7 7 7
6 6 7 7 7 7 7 8 7 7 6 5 6 5 6 6 7 7 7 8 8 9 9 9 9 9 9 9 8 8 8 8 8 7 7 7 7 7 7 7 7 7 7 6
6 6 7 7 7 7 7 7 6 5 4 5 5 5 6 6 7 7 7 8 8 8 8 8 8 8 8 8 8 8 8 7 7 7 7 7 6 6 6 6 6 6 6 6
6 6 6 6 6 6 6 5 5 5 4 5 5 5 6 6 7 7 7 7 8 8 8 7 7 7 7 7 7 7 7 7 6 6 6 6 6 6 6 6 6 6 5 5
5 5 5 5 6 5 5 5 5 5 5 5 5 5 5 6 6 7 7 7 7 7 7 7 7 7 7 7 7 6 6 6 6 6 6 6 5 5 5 5 5 5 5 5
4 5 5 5 6 6 5 4 5 4 3 4 4 4 5 6 6 6 6 6 6 6 6 6 6 6 6 6 6 6 6 6 5 5 5 5 5 5 5 4 4 4 4 4
4 4 4 5 5 5 5 4 3 3 4 5 5 4 5 6 5 5 4 5 6 6 6 6 6 6 6 6 5 5 5 5 5 5 5 4 4 4 4 4 4 4 4 3
4 3 3 4 4 4 4 4 3 2 2 4 4 5 5 5 5 5 4 5 5 6 6 5 5 5 5 5 5 5 4 4 4 4 4 4 4 4 3 3 3 3 3 3
3 2 2 3 3 3 4 3 3 3 2 2 2 4 5 4 4 4 4 5 5 5 5 5 4 4 4 4 4 4 4 4 4 4 4 3 3 3 3 3 3 2 2 2
3 2 2 3 3 2 2 2 2 1 1 1 2 4 4 3 3 4 4 4 4 5 4 4 4 4 4 4 4 3 3 3 3 3 3 3 3 3 2 2 2 2 2 2
3 1 2 3 3 2 1 1 1 1 1 1 1 3 3 3 3 3 4 4 4 4 4 4 4 3 3 3 3 3 3 3 3 2 2 2 2 2 2 2 2 1 2 1
2 1 0 1 2 1 2 2 1 1 1 1 2 2 3 3 2 3 3 3 3 3 3 3 3 3 2 2 2 2 2 2 2 2 2 2 2 1 1 1 1 1 1 1
-0 -0 -0 0 1 1 1 1 1 1 1 1 1 2 2 3 3 3 2 2 2 2 2 2 2 2 2 2 2 2 2 1 1 1 1 1 1 1 1 1 1 1 1 1
-1 -1 -0 0 0 0 0 1 1 1 0 1 2 2 2 1 1 2 2 2 2 2 2 2 2 2 2 2 1 1 1 1 1 1 1 0 0 0 1 1 0 0 0 0
-1 -1 -1 -1 -0 0 2 1 1 1 1 1 1 1 1 1 1 2 2 2 2 2 2 2 1 1 1 1 1 1 0 0 0 0 -0 -0 0 0 0 -0 -0 -0 -0 -0
-1 -1 -2 -2 -1 -0 1 1 1 1 1 0 0 0 1 1 1 1 2 2 2 2 1 1 1 1 1 1 0 0 0 0 -0 -0 -0 -0 -0 -0 -0 -0 -0 -1 -1 -1
-2 -2 -2 -2 -1 -0 1 1 1 1 1 1 0 0 0 0 -1 -0 1 1 1 1 1 1 1 0 0 0 -0 -0 -0 -0 -0 -1 -1 -1 -1 -1 -1 -1 -1 -1 -1 -1
-2 -2 -2 -2 -2 -1 -0 0 1 1 1 1 1 1 0 -0 0 1 1 1 1 0 0 0 -0 -0 -0 -1 -1 -1 -1 -1 -1 -1 -1 -1 -1 -1 -1 -1 -1 -2 -2 -2
-2 -3 -3 -3 -2 -1 -0 -1 -0 0 1 1 1 1 1 1 0 0 0 0 -0 -0 -0 -1 -1 -1 -1 -1 -1 -1 -1 -1 -1 -1 -2 -2 -2 -2 -2 -2 -2 -2 -2 -2
-2 -2 -2 -2 -1 -1 -0 0 1 1 1 1 1 1 0 -0 -0 -1 -1 -1 -1 -1 -1 -1 -1 -2 -2 -2 -2 -2 -2 -2 -2 -2 -2 -2 -2 -2 -2 -2 -2 -3 -3 -3
-3 -3 -3 -3 -3 -2 -1 -0 0 0 0 0 0 0 -0 -0 -1 -1 -1 -1 -1 -2 -2 -2 -2 -2 -2 -2 -2 -2 -2 -2 -2 -2 -2 -3 -3 -3 -3 -3 -3 -3 -3 -3
-3 -4 -4 -3 -3 -2 -1 -1 -0 -0 -0 -0 -0 -1 -1 -1 -1 -2 -2 -2 -2 -2 -2 -2 -3 -3 -3 -3 -3 -3 -3 -3 -3 -3 -3 -3 -3 -3 -3 -3 -3 -3 -3 -4
-5 -4 -4 -3 -2 -3 -1 -1 -1 -1 -1 -1 -1 -1 -2 -2 -2 -2 -2 -2 -3 -3 -3 -3 -3 -3 -3 -3 -3 -3 -3 -3 -3 -3 -3 -3 -4 -4 -4 -3 -3 -4 -4 -4
Wind_Speed
1 3 4 8 7 5 4 4 3 4 2 2 6 8 9 5 4 6 6 5 5 5 3 2 2 2 2 2 2 2 2 2 2 2 2 1 1 1 1 1 1 1 1 2
2 4 7 5 4 3 3 3 3 3 1 1 4 8 8 6 6 7 8 7 6 4 2 2 2 2 2 2 2 2 2 2 2 2 2 2 2 1 1 1 2 1 0 2
5 5 4 4 4 5 4 5 5 3 3 2 2 6 5 4 3 4 5 6 6 7 7 5 4 3 2 2 2 2 2 2 2 2 2 2 2 1 0 1 1 2 1 2
2 4 3 4 5 5 6 4 3 3 1 3 1 4 6 5 4 4 5 5 6 6 6 6 5 4 4 3 2 2 2 2 2 2 3 3 2 2 2 2 2 2 2 1
3 2 2 5 5 5 5 2 2 2 3 2 2 3 7 3 5 6 6 7 7 7 7 6 6 5 4 3 2 1 1 1 1 2 3 3 2 2 1 1 1 2 1 1
3 2 2 3 2 3 2 4 4 3 3 3 6 5 6 5 7 5 4 4 5 5 4 4 3 3 2 1 1 1 1 1 1 1 2 3 3 2 2 1 1 2 1 1
2 2 1 1 2 1 3 4 2 2 1 6 4 5 8 6 5 6 5 4 4 4 4 4 3 3 2 1 1 1 1 1 0 1 2 3 3 4 4 3 3 2 1 1
4 4 4 2 4 5 4 6 6 5 5 4 2 6 6 4 3 2 3 3 3 3 3 4 4 3 3 2 1 1 1 1 1 1 2 2 2 2 2 3 2 2 2 2
5 4 1 1 1 5 4 4 4 4 1 2 5 5 6 2 1 1 2 2 2 2 3 3 2 2 2 2 2 2 2 1 1 1 2 2 2 2 2 2 1 1 1 1
4 3 2 1 2 1 3 5 4 4 4 4 4 5 5 4 3 1 2 2 2 1 2 2 2 1 1 1 1 1 1 2 1 1 2 2 2 2 1 1 1 1 1 1
2 3 1 0 4 5 3 3 4 4 4 5 4 6 4 6 5 4 3 3 3 2 2 2 1 0 1 1 1 0 0 0 1 1 1 1 1 1 1 1 1 1 1 1
3 4 2 4 3 2 4 5 6 5 4 4 4 6 4 3 3 3 2 1 1 1 1 2 1 1 1 1 1 1 1 1 1 1 1 1 1 1 1 1 1 1 1 1
4 4 2 2 2 1 2 3 4 4 3 5 5 7 3 0 0 0 1 1 1 1 1 0 0 0 0 1 1 1 1 2 2 1 1 1 1 1 1 1 1 1 1 1
3 3 5 8 5 4 4 4 5 5 5 5 8 8 7 5 4 3 2 2 1 1 1 1 1 1 1 1 1 2 2 2 1 1 1 2 2 2 2 1 1 1 1 1
3 3 3 3 2 3 5 6 7 9 9 9 8 9 11 8 6 5 3 2 1 1 1 1 2 2 2 2 2 2 2 2 1 1 2 3 2 2 1 1 1 1 1 1
2 3 2 2 2 3 4 8 9 9 8 9 8 11 10 6 3 3 3 3 3 3 3 3 3 3 3 3 3 3 3 2 1 2 3 2 2 2 2 1 1 1 1 1
3 4 3 3 1 3 6 9 11 7 7 8 11 10 4 3 3 4 4 4 4 4 4 4 4 4 4 4 4 4 3 2 2 2 2 2 2 2 2 2 1 1 1 1
5 4 3 1 2 6 7 3 6 7 7 8 6 5 4 4 4 3 3 4 4 4 4 4 4 4 4 3 3 3 2 2 2 2 2 2 2 2 2 2 2 2 2 2
5 6 3 3 3 7 7 3 4 5 5 5 7 6 4 2 1 3 2 2 3 3 3 3 4 3 3 3 3 2 2 2 2 3 3 3 2 2 2 2 2 2 1 1
3 4 4 4 3 6 6 3 1 3 4 3 4 5 3 2 1 4 3 2 2 2 2 2 2 2 2 3 2 2 3 3 3 4 3 2 2 3 3 3 2 2 1 1
3 3 5 5 5 8 6 3 2 3 5 2 3 4 4 5 5 4 3 2 2 2 2 2 2 2 3 3 2 2 3 4 4 3 2 2 2 2 2 2 2 2 1 1
7 6 6 5 5 8 3 3 5 5 2 1 2 3 4 4 3 3 3 3 2 2 3 2 2 3 3 2 2 3 4 4 3 2 2 2 2 2 1 1 1 1 2 1
7 7 6 8 8 4 3 4 3 2 2 3 3 3 3 3 4 3 3 3 3 3 3 2 2 3 3 3 2 4 5 3 2 2 2 2 2 2 1 2 2 1 1 1
4 2 3 4 6 5 4 3 3 3 3 3 3 3 3 4 4 4 4 4 4 3 3 2 2 3 4 4 3 4 4 2 2 2 3 2 2 2 1 2 2 2 2 2
4 4 3 5 5 4 5 5 5 4 3 3 3 3 3 3 4 4 4 5 4 4 3 3 3 4 5 5 4 4 3 2 2 3 3 2 2 2 2 2 2 3 3 3
4 5 6 6 5 4 5 4 3 4 4 4 4 4 3 4 4 4 5 5 4 4 3 3 3 4 5 4 4 4 3 3 3 3 3 2 2 2 2 1 1 2 2 3
Wind_Direction
129 109 199 212 208 203 182 183 228 249 242 194 227 249 261 252 220 219 217 208 205 215 216 176 161 140 122 112 124 144 140 150 137 126 135 140 175 169 112 51 49 48 127 159
73 230 228 217 217 212 202 213 245 284 321 211 262 271 264 243 218 210 205 202 201 200 188 179 157 134 140 142 140 140 152 154 155 158 168 169 179 179 157 35 4 333 239 196
191 232 228 201 202 204 222 210 218 244 329 345 332 296 275 268 232 215 205 196 193 191 191 191 185 180 162 164 176 172 177 168 163 142 120 95 84 57 46 331 284 308 286 230
226 262 234 204 214 197 229 222 204 204 166 269 174 271 275 263 270 231 221 208 203 198 191 185 183 182 184 194 189 171 176 181 171 144 151 155 167 197 225 226 237 287 303 285
229 233 219 218 219 193 210 194 166 181 170 279 245 212 279 272 248 243 230 218 213 203 191 188 189 188 184 175 167 179 168 174 169 160 161 168 188 209 217 222 252 267 286 316
224 241 206 215 205 182 155 75 53 56 92 253 226 192 269 238 225 229 228 215 208 194 184 177 171 149 136 131 127 117 131 140 151 167 172 180 189 188 187 215 237 265 261 272
274 277 282 126 123 118 118 109 57 347 302 243 219 203 248 250 242 213 212 208 194 177 168 162 154 147 152 155 149 128 138 159 191 185 204 203 200 191 198 215 217 225 248 256
187 255 233 196 177 182 191 156 167 197 217 262 237 224 252 267 268 204 183 175 164 167 169 173 170 167 173 172 162 157 169 186 222 224 229 214 203 202 211 219 222 219 227 239
183 232 255 198 164 150 160 190 171 140 149 249 255 269 295 290 313 123 140 137 149 176 173 173 164 161 169 177 185 181 182 215 258 242 231 218 205 207 217 218 222 222 228 239
163 202 252 254 84 42 154 148 116 144 173 237 267 253 235 244 241 214 171 185 204 195 182 175 167 165 160 186 185 162 176 205 241 244 230 228 215 216 212 192 212 225 235 233
132 159 260 82 193 195 153 155 149 150 169 178 239 260 225 209 212 201 201 211 216 214 201 185 179 157 75 52 57 80 209 249 290 261 227 202 196 194 191 202 218 226 232 227
153 135 206 247 265 221 187 181 157 169 219 191 199 262 280 211 207 181 191 222 237 241 208 186 170 110 61 38 12 346 299 271 282 270 206 197 180 152 179 231 244 237 239 246
147 135 116 335 322 344 215 197 173 146 141 176 193 256 308 32 29 181 198 251 277 251 168 153 172 164 272 295 294 297 294 284 289 284 222 200 200 190 213 233 244 244 245 256
125 146 183 202 217 185 210 217 185 161 189 217 224 246 278 280 279 282 264 269 279 242 217 235 266 257 268 267 267 280 289 293 304 297 230 224 230 224 225 227 230 241 232 231
114 177 209 245 244 192 213 218 203 204 206 212 232 237 255 256 251 251 245 246 249 254 270 260 261 262 268 274 278 275 279 282 273 249 235 229 232 226 222 223 231 241 242 255
110 163 159 277 256 227 255 243 225 226 225 229 247 263 259 255 246 252 255 235 246 256 256 257 257 257 258 257 261 268 269 271 264 249 246 235 225 223 220 231 231 225 245 265
160 147 155 244 310 2 269 231 212 211 211 201 229 244 254 256 240 233 233 223 234 254 260 257 253 252 254 250 246 245 249 260 264 258 256 238 224 224 231 232 227 228 217 206
160 151 158 172 74 239 248 218 200 214 237 221 231 240 236 238 250 254 226 215 246 258 262 268 262 262 260 252 248 246 250 250 249 255 260 250 231 226 230 220 224 234 230 219
173 161 155 161 221 272 291 260 190 195 255 233 223 238 249 255 329 303 252 238 248 252 263 265 262 257 263 259 242 235 255 253 244 246 252 250 234 229 229 223 230 236 220 227
122 138 148 157 195 239 254 269 206 124 271 258 202 212 215 134 281 265 274 286 274 278 278 280 284 278 276 268 235 226 251 250 247 251 255 255 237 227 229 229 227 234 213 217
153 155 180 188 220 259 259 261 116 168 248 262 201 204 193 205 226 241 267 276 261 279 290 296 298 292 280 277 244 241 250 248 250 253 255 253 237 231 224 231 231 217 213 212
178 176 190 173 206 251 230 142 184 221 252 251 246 224 222 234 243 248 250 254 269 286 294 297 300 298 294 285 255 260 262 260 256 248 247 244 231 235 232 208 229 226 202 201
198 193 188 193 214 248 197 208 231 206 227 249 248 247 227 237 251 257 256 258 269 268 274 280 273 293 298 289 256 256 269 269 260 255 256 251 237 230 225 215 215 220 209 218
249 193 177 237 263 267 262 272 287 275 260 266 256 247 233 245 250 259 263 268 274 268 268 270 271 279 287 286 271 257 266 257 238 249 259 257 238 235 225 230 225 219 218 223
226 181 203 248 271 298 282 260 261 274 280 282 281 273 254 248 262 258 260 264 266 267 265 255 256 263 274 283 277 272 264 235 233 247 251 249 240 224 221 225 227 228 228 227
211 191 197 231 236 224 257 263 266 265 270 267 270 277 267 242 251 259 261 260 258 262 267 265 262 264 273 279 281 279 262 228 222 240 245 241 237 229 218 218 265 275 257 264
Height
1494 1499 1501 1499 1498 1498 1499 1501 1502 1501 1498 1500 1500 1499 1494 1492 1492 1492 1492 1492 1493 1494 1496 1497 1498 1499 1500 1501 1501 1502 1503 1503 1504 1504 1504 1504 1504 1504 1504 1505 1505 1505 1505 1505
1498 1499 1495 1495 1496 1497 1498 1501 1502 1500 1498 1500 1500 1497 1492 1489 1488 1487 1488 1489 1490 1491 1493 1494 1495 1496 1497 1498 1499 1499 1500 1501 1501 1501 1501 1502 1502 1501 1501 1501 1502 1501 1501 1501
1496 1495 1493 1494 1496 1498 1499 1501 1501 1501 1500 1500 1501 1498 1491 1487 1485 1485 1486 1486 1487 1488 1489 1490 1492 1493 1494 1495 1496 1497 1497 1498 1498 1499 1499 1499 1499 1498 1498 1498 1498 1498 1498 1497
1496 1493 1493 1494 1495 1496 1499 1497 1498 1499 1504 1508 1505 1508 1493 1487 1485 1483 1483 1483 1484 1485 1486 1488 1489 1490 1491 1492 1493 1494 1495 1495 1495 1496 1496 1495 1495 1494 1494 1494 1494 1494 1494 1494
1495 1492 1492 1493 1493 1494 1496 1495 1497 1500 1504 1509 1506 1510 1496 1488 1485 1482 1480 1480 1480 1482 1483 1485 1486 1487 1489 1490 1490 1491 1491 1492 1492 1492 1492 1492 1492 1492 1491 1491 1491 1490 1490 1490
1493 1492 1491 1491 1491 1492 1494 1497 1500 1505 1509 1512 1505 1508 1498 1488 1480 1478 1478 1478 1478 1479 1481 1482 1484 1485 1486 1487 1487 1488 1488 1488 1489 1489 1489 1489 1488 1488 1488 1487 1487 1486 1486 1486
1493 1492 1490 1490 1492 1493 1495 1503 1512 1512 1518 1510 1501 1502 1493 1480 1476 1475 1476 1476 1476 1477 1478 1480 1481 1482 1483 1484 1484 1485 1485 1485 1486 1486 1486 1486 1485 1485 1485 1484 1484 1483 1482 1482
1495 1496 1491 1490 1491 1493 1495 1498 1508 1509 1510 1506 1501 1500 1486 1477 1474 1473 1474 1475 1476 1477 1477 1478 1479 1480 1480 1481 1481 1482 1482 1482 1482 1483 1483 1483 1482 1482 1482 1481 1481 1480 1479 1479
1493 1493 1489 1488 1489 1490 1494 1498 1498 1507 1511 1510 1501 1493 1483 1475 1474 1474 1474 1475 1475 1476 1476 1477 1477 1478 1478 1479 1479 1479 1479 1479 1479 1480 1480 1479 1479 1479 1478 1478 1478 1477 1476 1476
1488 1493 1490 1489 1489 1490 1491 1494 1502 1507 1509 1503 1497 1493 1486 1478 1476 1474 1474 1474 1474 1475 1475 1475 1476 1476 1476 1477 1477 1477 1477 1477 1477 1476 1476 1476 1476 1475 1475 1475 1474 1474 1473 1473
1486 1492 1493 1492 1492 1492 1493 1495 1498 1505 1506 1505 1501 1490 1476 1474 1473 1473 1473 1473 1474 1474 1474 1474 1474 1474 1474 1474 1474 1474 1474 1474 1474 1474 1473 1473 1472 1472 1472 1472 1471 1471 1470 1470
1487 1493 1496 1494 1490 1489 1490 1491 1496 1501 1504 1506 1506 1492 1472 1472 1472 1472 1473 1473 1473 1473 1473 1473 1473 1473 1473 1472 1472 1472 1472 1472 1471 1471 1470 1470 1469 1469 1469 1469 1468 1468 1468 1467
1485 1493 1497 1494 1496 1493 1492 1491 1493 1497 1502 1506 1504 1489 1473 1472 1471 1472 1472 1472 1472 1472 1472 1472 1471 1471 1470 1470 1470 1469 1469 1469 1469 1468 1468 1467 1467 1466 1466 1465 1465 1465 1464 1464
1483 1490 1492 1489 1486 1489 1491 1491 1492 1495 1500 1500 1494 1483 1475 1473 1472 1471 1471 1471 1471 1471 1470 1470 1469 1469 1468 1468 1467 1467 1466 1466 1466 1465 1465 1464 1464 1463 1463 1462 1462 1462 1461 1461
1482 1489 1490 1488 1486 1486 1486 1486 1489 1490 1489 1490 1483 1481 1472 1471 1471 1470 1470 1470 1469 1469 1469 1468 1468 1467 1466 1466 1465 1464 1464 1463 1463 1462 1462 1461 1461 1461 1460 1460 1459 1459 1458 1458
1484 1488 1490 1488 1485 1486 1485 1483 1483 1483 1482 1482 1480 1476 1467 1468 1468 1468 1467 1467 1467 1467 1467 1466 1465 1465 1464 1463 1462 1461 1461 1460 1460 1459 1459 1458 1458 1457 1457 1456 1456 1456 1455 1455
1485 1489 1490 1488 1488 1486 1485 1475 1475 1476 1474 1474 1473 1468 1465 1467 1466 1466 1465 1465 1465 1464 1464 1463 1463 1462 1461 1460 1459 1458 1458 1457 1457 1456 1455 1455 1455 1454 1454 1453 1453 1452 1452 1451
1484 1487 1491 1491 1491 1489 1471 1466 1466 1468 1466 1467 1465 1464 1464 1464 1464 1463 1463 1463 1462 1462 1461 1460 1460 1459 1458 1457 1456 1456 1455 1454 1453 1453 1452 1452 1451 1451 1451 1450 1450 1449 1449 1448
1478 1483 1489 1492 1491 1482 1470 1465 1465 1467 1465 1462 1462 1462 1462 1462 1462 1462 1462 1461 1461 1460 1459 1458 1457 1456 1455 1454 1453 1452 1452 1451 1450 1449 1449 1449 1448 1448 1447 1447 1446 1446 1446 1445
1478 1480 1487 1491 1488 1481 1466 1462 1461 1464 1465 1459 1458 1460 1461 1461 1465 1461 1459 1459 1458 1457 1456 1455 1454 1453 1452 1451 1450 1449 1448 1447 1446 1446 1446 1445 1445 1444 1444 1444 1443 1443 1443 1442
1480 1482 1485 1487 1487 1475 1464 1461 1461 1468 1463 1457 1456 1457 1458 1459 1459 1458 1456 1456 1455 1455 1454 1453 1451 1450 1449 1448 1447 1445 1445 1444 1443 1443 1442 1442 1441 1441 1441 1440 1440 1440 1440 1439
1473 1479 1482 1483 1484 1473 1459 1460 1462 1459 1456 1455 1455 1455 1455 1455 1454 1454 1453 1453 1452 1451 1450 1449 1448 1447 1446 1445 1444 1442 1441 1441 1440 1439 1439 1438 1438 1437 1437 1437 1437 1437 1437 1436
1466 1465 1466 1467 1464 1457 1455 1455 1454 1454 1454 1453 1453 1453 1453 1452 1451 1450 1450 1449 1449 1448 1447 1446 1445 1444 1443 1442 1441 1439 1438 1437 1436 1436 1435 1435 1434 1434 1434 1434 1434 1434 1434 1433
1462 1460 1462 1462 1457 1455 1454 1453 1453 1453 1452 1451 1451 1451 1450 1449 1448 1447 1446 1446 1445 1444 1444 1443 1442 1441 1439 1438 1437 1436 1435 1434 1433 1432 1432 1431 1431 1430 1430 1431 1431 1430 1430 1430
1457 1458 1459 1458 1454 1452 1451 1451 1450 1450 1450 1449 1448 1448 1447 1446 1444 1444 1443 1442 1441 1440 1440 1439 1438 1437 1436 1435 1434 1433 1432 1431 1430 1429 1428 1428 1428 1427 1427 1427 1427 1427 1427 1427
1454 1455 1456 1453 1450 1450 1449 1448 1448 1448 1447 1446 1445 1443 1443 1442 1441 1440 1439 1438 1437 1436 1436 1435 1434 1433 1432 1431 1430 1429 1428 1428 1427 1425 1425 1424 1424 1424 1424 1424 1424 1424 1424 1424